FW2545 Weather Reports


Display with metric or nautical units.
time (UTC)temp
F
wind
direction
speed
MPH
gust
MPH
rain 1hr
in
rain 24hr
in
rain mn
in
humidity
%
barometer
mb
20260905061641 49 263 1.0 2.0 0.00 0.03 0.02 90 1018.3
20260905060037 49 204 0.0 2.0 0.00 0.03 0.02 90 1018.4
20260905054529 50 202 0.0 2.0 0.00 0.03 0.02 89 1018.4
20260905053143 51 164 1.0 4.0 0.00 0.03 0.02 88 1018.4
20260905051715 0 0 0.0 0.0 0.00 0.03 0.02 100
20260905044531 53 236 0.0 3.0 0.00 0.03 0.02 85 1018.1
20260905043031 53 276 1.0 4.0 0.00 0.03 0.02 84 1018.1
20260905034537 54 129 0.0 2.0 0.00 0.03 0.02 79 1018.0
20260905031529 58 9 3.0 5.0 0.00 0.03 0.02 73 1017.6
20260905030033 58 339 3.0 6.0 0.00 0.03 0.02 73 1017.5
20260905023032 59 312 2.0 5.0 0.00 0.03 0.02 71 1017.4
20260905021536 60 327 2.0 7.0 0.00 0.03 0.02 71 1017.4
20260905020031 60 334 3.0 8.0 0.00 0.03 0.02 70 1017.3
20260905014532 61 338 3.0 7.0 0.00 0.03 0.02 70 1017.1
20260905013029 61 326 3.0 6.0 0.00 0.03 0.02 70 1016.8
20260905001532 63 298 5.0 10.0 0.00 0.03 0.02 66 1016.3
20260905000142 63 295 4.0 9.0 0.00 0.03 0.02 65 1016.2
20260904234532 64 285 3.0 8.0 0.01 0.03 0.02 65 1016.1
20260904233034 62 291 2.0 7.0 0.01 0.03 0.02 66 1016.3
20260904231532 63 246 4.0 9.0 0.01 0.03 0.02 75 1016.3
20260904230031 58 209 4.0 9.0 0.02 0.03 0.01 79 1016.4
20260904224536 58 302 2.0 6.0 0.01 0.02 0.01 78 1016.2
20260904223036 59 300 3.0 6.0 0.01 0.02 0.01 74 1015.9
20260904221536 63 314 2.0 5.0 0.01 0.02 0.00 63 1015.9
20260904214535 70 58 2.0 7.0 0.00 0.01 0.00 52 1015.7
20260904211532 67 52 1.0 6.0 0.00 0.01 0.00 61 1015.7
20260904210029 65 26 3.0 5.0 0.00 0.01 0.00 62 1015.9
20260904203034 67 16 4.0 9.0 0.00 0.01 0.00 58 1015.9
20260904201530 67 12 4.0 8.0 0.00 0.01 0.00 58 1016.0
20260904194536 65 13 4.0 11.0 0.00 0.01 0.00 62 1016.2
20260904193034 65 347 3.0 9.0 0.00 0.01 0.00 62 1016.3
20260904191531 66 337 3.0 10.0 0.00 0.01 0.00 62 1016.3
20260904190035 66 14 3.0 10.0 0.00 0.01 0.00 63 1016.4
20260904184533 65 360 2.0 8.0 0.00 0.01 0.00 66 1016.4
20260904183032 64 15 4.0 9.0 0.00 0.01 0.00 69 1016.4
20260904181532 62 26 2.0 7.0 0.00 0.01 0.00 71 1016.4
20260904180029 62 78 3.0 7.0 0.00 0.01 0.00 72 1016.4
20260904174534 61 63 2.0 8.0 0.00 0.01 0.00 77 1016.4
20260904173141 59 4 1.0 5.0 0.00 0.01 0.00 79 1016.4
20260904171531 58 2 1.0 5.0 0.00 0.01 0.00 81 1016.4
20260904170034 57 313 1.0 6.0 0.00 0.01 0.00 83 1016.4
20260904164529 57 319 1.0 5.0 0.00 0.01 0.00 86 1016.4
20260904163032 56 305 2.0 5.0 0.00 0.01 0.00 88 1016.4
20260904161641 55 291 1.0 3.0 0.00 0.01 0.00 90 1016.4
20260904154609 53 171 0.0 3.0 0.00 0.01 0.00 93 1016.3
20260904153035 52 172 2.0 4.0 0.00 0.01 0.00 94 1016.3
20260904150029 50 247 0.0 1.0 0.00 0.01 0.00 95 1015.9
20260904144544 49 247 0.0 1.0 0.00 0.01 0.00 94 1015.7
20260904144536 48 271 1.0 3.0 0.00 0.01 0.00 94 1015.6
20260904141535 48 213 0.0 2.0 0.00 0.02 0.00 94 1015.5
20260904140032 48 202 0.0 0.0 0.00 0.02 0.00 94 1015.4
20260904131530 48 292 0.0 1.0 0.00 0.02 0.00 94 1014.8
20260904130144 48 292 1.0 3.0 0.00 0.02 0.00 94 1014.7
20260904124641 48 216 0.0 3.0 0.00 0.02 0.00 94 1014.7
20260904123143 48 202 0.0 0.0 0.00 0.02 0.00 94 1014.8
20260904121532 48 202 0.0 2.0 0.00 0.02 0.00 94 1014.7
20260904120032 48 202 0.0 3.0 0.00 0.02 0.00 94 1014.6
20260904114536 48 163 0.0 2.0 0.00 0.02 0.00 94 1014.4
20260904113031 48 157 0.0 0.0 0.00 0.02 0.00 94 1014.3
20260904111530 48 179 0.0 3.0 0.00 0.02 0.00 93 1014.2
20260904110029 48 208 0.0 2.0 0.00 0.02 0.00 93 1014.1
20260904104533 48 225 0.0 1.0 0.00 0.02 0.00 93 1014.0
20260904101536 47 247 1.0 4.0 0.00 0.02 0.00 93 1013.7
20260904100035 46 192 2.0 4.0 0.00 0.02 0.00 93 1013.6
20260904094537 45 219 1.0 3.0 0.00 0.02 0.00 93 1013.6
20260904091535 46 202 0.0 2.0 0.00 0.02 0.00 93 1013.5
20260904083111 46 202 0.0 2.0 0.00 0.02 0.00 92 1013.4
20260904081642 46 185 2.0 3.0 0.00 0.02 0.00 92 1013.4
20260904080033 46 202 1.0 4.0 0.00 0.02 0.00 92 1013.5
20260904074530 46 200 1.0 4.0 0.00 0.02 0.00 92 1013.4
20260904073037 46 194 1.0 4.0 0.01 0.02 0.00 92 1013.3
20260904071535 46 173 0.0 3.0 0.01 0.02 0.00 91 1013.4
20260904070034 46 228 1.0 3.0 0.01 0.02 0.00 91 1013.3
20260904064529 46 187 2.0 6.0 0.01 0.02 0.01 91 1013.3